Time,TemperatureF,DewpointF,PressureIn,WindDirection,WindDirectionDegrees,WindSpeedMPH,WindSpeedGustMPH,Humidity,HourlyPrecipIn,Conditions,Clouds,dailyrainin,SoftwareType,DateUTC
2013-04-19 00:03:00,38.0,34.0,29.47,WSW,254,0.0,0.0,86,0.00,,,0.00,,2013-04-19 05:03:00,
2013-04-19 00:11:00,38.0,34.0,29.47,WSW,254,0.0,0.0,86,0.00,,,0.00,,2013-04-19 05:11:00,
2013-04-19 00:22:00,37.0,33.0,29.46,WSW,257,0.0,0.0,86,0.00,,,0.00,,2013-04-19 05:22:00,
2013-04-19 00:32:00,38.0,32.0,29.45,SW,236,0.0,0.0,80,0.00,,,0.00,,2013-04-19 05:32:00,
2013-04-19 00:42:00,38.0,32.0,29.45,SW,236,0.0,0.0,80,0.00,,,0.00,,2013-04-19 05:42:00,
2013-04-19 00:52:00,38.0,32.0,29.45,West,260,0.0,0.0,80,0.00,,,0.00,,2013-04-19 05:52:00,
2013-04-19 01:02:00,38.0,33.0,29.45,WSW,252,0.0,0.0,81,0.00,,,0.00,,2013-04-19 06:02:00,
2013-04-19 01:11:00,38.0,33.0,29.45,WSW,252,0.0,0.0,81,0.00,,,0.00,,2013-04-19 06:11:00,
2013-04-19 01:22:00,38.0,33.0,29.45,West,267,0.0,0.0,81,0.00,,,0.00,,2013-04-19 06:22:00,
2013-04-19 01:32:00,37.0,31.0,29.45,WSW,253,0.0,0.0,80,0.00,,,0.00,,2013-04-19 06:32:00,
2013-04-19 01:42:00,37.0,31.0,29.45,WSW,253,0.0,0.0,80,0.00,,,0.00,,2013-04-19 06:42:00,
2013-04-19 01:52:00,37.0,31.0,29.45,WSW,253,0.0,0.0,80,0.00,,,0.00,,2013-04-19 06:52:00,
2013-04-19 02:02:00,37.0,32.0,29.44,West,268,0.0,0.0,82,0.00,,,0.00,,2013-04-19 07:02:00,
2013-04-19 02:12:00,37.0,32.0,29.44,West,268,0.0,0.0,82,0.00,,,0.00,,2013-04-19 07:12:00,
2013-04-19 02:21:00,37.0,32.0,29.44,SW,225,0.0,0.0,82,0.00,,,0.00,,2013-04-19 07:21:00,
2013-04-19 02:32:00,37.0,32.0,29.44,WSW,240,0.0,0.0,83,0.00,,,0.00,,2013-04-19 07:32:00,
2013-04-19 02:42:00,37.0,32.0,29.44,WSW,240,0.0,0.0,83,0.00,,,0.00,,2013-04-19 07:42:00,
2013-04-19 02:52:00,37.0,33.0,29.44,West,261,0.0,0.0,84,0.00,,,0.00,,2013-04-19 07:52:00,
2013-04-19 03:02:00,37.0,32.0,29.43,West,270,0.0,0.0,83,0.00,,,0.00,,2013-04-19 08:02:00,
2013-04-19 03:12:00,37.0,32.0,29.43,SW,236,0.0,0.0,81,0.00,,,0.00,,2013-04-19 08:12:00,
2013-04-19 03:21:00,37.0,32.0,29.43,SW,236,0.0,0.0,81,0.00,,,0.00,,2013-04-19 08:21:00,
2013-04-19 03:32:00,37.0,32.0,29.44,WSW,257,0.0,0.0,82,0.00,,,0.00,,2013-04-19 08:32:00,
2013-04-19 03:42:00,37.0,32.0,29.44,WSW,257,0.0,0.0,82,0.00,,,0.00,,2013-04-19 08:42:00,
2013-04-19 03:52:00,37.0,32.0,29.43,WSW,244,0.0,0.0,82,0.00,,,0.00,,2013-04-19 08:52:00,
2013-04-19 04:01:00,37.0,31.0,29.43,WSW,252,0.0,0.0,80,0.00,,,0.00,,2013-04-19 09:01:00,
2013-04-19 04:11:00,37.0,31.0,29.43,WSW,252,0.0,0.0,80,0.00,,,0.00,,2013-04-19 09:11:00,
2013-04-19 04:21:00,37.0,32.0,29.43,West,259,0.0,0.0,81,0.00,,,0.00,,2013-04-19 09:21:00,
2013-04-19 04:32:00,37.0,32.0,29.44,WNW,286,0.0,0.0,81,0.00,,,0.00,,2013-04-19 09:32:00,
2013-04-19 04:42:00,37.0,32.0,29.44,WNW,286,0.0,0.0,81,0.00,,,0.00,,2013-04-19 09:42:00,
2013-04-19 04:52:00,36.0,31.0,29.43,West,264,0.0,0.0,82,0.00,,,0.00,,2013-04-19 09:52:00,
2013-04-19 05:02:00,36.0,31.0,29.44,WSW,258,0.0,0.0,83,0.00,,,0.00,,2013-04-19 10:02:00,
2013-04-19 05:13:00,36.0,32.0,29.44,West,269,0.0,0.0,85,0.00,,,0.00,,2013-04-19 10:13:00,
2013-04-19 05:23:00,36.0,32.0,29.44,West,269,0.0,0.0,85,0.00,,,0.00,,2013-04-19 10:23:00,
2013-04-19 05:33:00,36.0,31.0,29.44,WSW,242,0.0,0.0,81,0.00,,,0.00,,2013-04-19 10:33:00,
2013-04-19 05:42:00,36.0,30.0,29.44,SW,227,0.0,0.0,80,0.00,,,0.00,,2013-04-19 10:42:00,
2013-04-19 05:52:00,36.0,30.0,29.44,SW,227,0.0,0.0,80,0.00,,,0.00,,2013-04-19 10:52:00,
2013-04-19 06:02:00,36.0,30.0,29.44,WSW,255,0.0,0.0,79,0.00,,,0.00,,2013-04-19 11:02:00,
2013-04-19 06:11:00,36.0,30.0,29.44,WSW,255,0.0,0.0,79,0.00,,,0.00,,2013-04-19 11:11:00,
2013-04-19 06:22:00,36.0,30.0,29.44,WSW,245,0.0,0.0,79,0.00,,,0.00,,2013-04-19 11:22:00,
2013-04-19 06:32:00,36.0,31.0,29.45,West,263,0.0,0.0,81,0.00,,,0.00,,2013-04-19 11:32:00,
2013-04-19 06:42:00,36.0,31.0,29.45,West,263,0.0,0.0,81,0.00,,,0.00,,2013-04-19 11:42:00,
2013-04-19 06:52:00,36.0,31.0,29.45,WSW,251,0.0,0.0,81,0.00,,,0.00,,2013-04-19 11:52:00,
2013-04-19 07:02:00,35.0,31.0,29.46,WNW,288,0.0,0.0,84,0.00,,,0.00,,2013-04-19 12:02:00,
2013-04-19 07:12:00,35.0,30.0,29.45,WNW,298,0.0,0.0,81,0.00,,,0.00,,2013-04-19 12:12:00,
2013-04-19 07:22:00,35.0,30.0,29.45,WNW,298,0.0,0.0,81,0.00,,,0.00,,2013-04-19 12:22:00,
2013-04-19 07:32:00,36.0,31.0,29.46,WNW,282,0.0,0.0,83,0.00,,,0.00,,2013-04-19 12:32:00,
2013-04-19 07:42:00,36.0,31.0,29.46,WNW,282,0.0,0.0,83,0.00,,,0.00,,2013-04-19 12:42:00,
2013-04-19 07:52:00,36.0,31.0,29.46,West,270,0.0,0.0,83,0.00,,,0.00,,2013-04-19 12:52:00,
2013-04-19 08:01:00,36.0,31.0,29.46,SW,235,0.0,0.0,83,0.00,,,0.00,,2013-04-19 13:01:00,
2013-04-19 08:11:00,36.0,31.0,29.46,SW,235,0.0,0.0,83,0.00,,,0.00,,2013-04-19 13:11:00,
2013-04-19 08:21:00,36.0,31.0,29.46,WSW,248,0.0,0.0,83,0.00,,,0.00,,2013-04-19 13:21:00,
2013-04-19 08:32:00,36.0,32.0,29.46,WSW,252,0.0,0.0,84,0.00,,,0.00,,2013-04-19 13:32:00,
2013-04-19 08:42:00,36.0,32.0,29.46,WSW,252,0.0,0.0,84,0.00,,,0.00,,2013-04-19 13:42:00,
2013-04-19 08:52:00,36.0,32.0,29.46,West,273,0.0,0.0,84,0.00,,,0.00,,2013-04-19 13:52:00,
2013-04-19 09:02:00,37.0,32.0,29.47,West,274,0.0,0.0,82,0.00,,,0.00,,2013-04-19 14:02:00,
2013-04-19 09:11:00,37.0,32.0,29.47,West,274,0.0,0.0,82,0.00,,,0.00,,2013-04-19 14:11:00,
2013-04-19 09:22:00,37.0,32.0,29.47,West,262,0.0,0.0,81,0.00,,,0.00,,2013-04-19 14:22:00,
2013-04-19 09:32:00,37.0,32.0,29.48,WSW,253,0.0,0.0,82,0.00,,,0.00,,2013-04-19 14:32:00,
2013-04-19 09:42:00,37.0,32.0,29.48,WSW,253,0.0,0.0,82,0.00,,,0.00,,2013-04-19 14:42:00,
2013-04-19 09:52:00,37.0,32.0,29.48,West,264,0.0,0.0,81,0.00,,,0.00,,2013-04-19 14:52:00,
2013-04-19 10:01:00,37.0,31.0,29.49,West,269,0.0,0.0,80,0.00,,,0.00,,2013-04-19 15:01:00,
2013-04-19 10:12:00,37.0,31.0,29.49,West,269,0.0,0.0,80,0.00,,,0.00,,2013-04-19 15:12:00,
2013-04-19 10:21:00,37.0,31.0,29.49,West,273,0.0,0.0,80,0.00,,,0.00,,2013-04-19 15:21:00,
2013-04-19 10:33:00,35.0,32.0,29.51,WNW,302,0.0,0.0,89,0.00,,,0.00,,2013-04-19 15:33:00,
2013-04-19 10:43:00,35.0,32.0,29.51,WNW,302,0.0,0.0,89,0.00,,,0.00,,2013-04-19 15:43:00,
2013-04-19 10:52:00,35.0,33.0,29.51,West,273,0.0,0.0,93,0.00,,,0.00,,2013-04-19 15:52:00,
2013-04-19 11:03:00,38.0,33.0,29.50,West,272,0.0,0.0,81,0.00,,,0.00,,2013-04-19 16:03:00,
2013-04-19 11:13:00,38.0,33.0,29.50,West,272,0.0,0.0,81,0.00,,,0.00,,2013-04-19 16:13:00,
2013-04-19 11:23:00,35.0,32.0,29.51,WSW,257,0.0,0.0,89,0.00,,,0.00,,2013-04-19 16:23:00,
2013-04-19 11:32:00,37.0,34.0,29.52,WSW,257,0.0,0.0,89,0.00,,,0.00,,2013-04-19 16:32:00,
2013-04-19 11:42:00,37.0,34.0,29.52,WSW,257,0.0,0.0,89,0.00,,,0.00,,2013-04-19 16:42:00,
2013-04-19 11:52:00,37.0,34.0,29.52,WSW,251,0.0,0.0,89,0.00,,,0.00,,2013-04-19 16:52:00,
2013-04-19 12:02:00,38.0,34.0,29.53,WSW,243,0.0,0.0,84,0.00,,,0.00,,2013-04-19 17:02:00,
2013-04-19 12:12:00,38.0,34.0,29.53,WSW,243,0.0,0.0,84,0.00,,,0.00,,2013-04-19 17:12:00,
2013-04-19 12:21:00,38.0,33.0,29.53,West,272,0.0,0.0,83,0.00,,,0.00,,2013-04-19 17:21:00,
2013-04-19 12:33:00,36.0,31.0,29.54,West,274,0.0,0.0,83,0.00,,,0.00,,2013-04-19 17:33:00,
2013-04-19 12:42:00,36.0,31.0,29.54,West,274,0.0,0.0,83,0.00,,,0.00,,2013-04-19 17:42:00,
2013-04-19 12:52:00,36.0,32.0,29.54,West,275,0.0,0.0,86,0.00,,,0.00,,2013-04-19 17:52:00,
2013-04-19 13:02:00,38.0,31.0,29.55,West,271,0.0,0.0,77,0.00,,,0.00,,2013-04-19 18:02:00,
2013-04-19 13:13:00,38.0,31.0,29.55,West,271,0.0,0.0,77,0.00,,,0.00,,2013-04-19 18:13:00,
2013-04-19 13:23:00,38.0,31.0,29.55,West,261,0.0,0.0,76,0.00,,,0.00,,2013-04-19 18:23:00,
2013-04-19 13:33:00,38.0,32.0,29.55,West,260,0.0,0.0,78,0.00,,,0.00,,2013-04-19 18:33:00,
2013-04-19 13:43:00,38.0,32.0,29.55,West,260,0.0,0.0,78,0.00,,,0.00,,2013-04-19 18:43:00,
2013-04-19 13:52:00,38.0,31.0,29.56,West,265,0.0,0.0,77,0.00,,,0.00,,2013-04-19 18:52:00,
2013-04-19 14:02:00,39.0,31.0,29.57,WNW,284,0.0,0.0,74,0.00,,,0.00,,2013-04-19 19:02:00,
2013-04-19 14:11:00,39.0,31.0,29.57,WNW,284,0.0,0.0,74,0.00,,,0.00,,2013-04-19 19:11:00,
2013-04-19 14:21:00,38.0,30.0,29.58,West,277,0.0,0.0,73,0.00,,,0.00,,2013-04-19 19:21:00,
2013-04-19 14:32:00,39.0,31.0,29.60,NW,321,0.0,0.0,73,0.00,,,0.00,,2013-04-19 19:32:00,
2013-04-19 14:42:00,39.0,31.0,29.60,NW,321,0.0,0.0,73,0.00,,,0.00,,2013-04-19 19:42:00,
2013-04-19 14:52:00,38.0,30.0,29.60,NW,306,0.0,0.0,72,0.00,,,0.00,,2013-04-19 19:52:00,
2013-04-19 15:02:00,39.0,30.0,29.61,West,269,0.0,0.0,69,0.00,,,0.00,,2013-04-19 20:02:00,
2013-04-19 15:11:00,39.0,30.0,29.61,West,269,0.0,0.0,69,0.00,,,0.00,,2013-04-19 20:11:00,
2013-04-19 15:22:00,38.0,29.0,29.61,West,277,0.0,0.0,70,0.00,,,0.00,,2013-04-19 20:22:00,
2013-04-19 15:32:00,38.0,31.0,29.62,West,266,0.0,0.0,77,0.00,,,0.00,,2013-04-19 20:32:00,
2013-04-19 15:42:00,38.0,32.0,29.63,West,279,0.0,0.0,78,0.00,,,0.00,,2013-04-19 20:42:00,
2013-04-19 15:51:00,38.0,32.0,29.63,West,279,0.0,0.0,78,0.00,,,0.00,,2013-04-19 20:51:00,
2013-04-19 16:01:00,38.0,30.0,29.64,West,269,0.0,0.0,72,0.00,,,0.00,,2013-04-19 21:01:00,
2013-04-19 16:11:00,38.0,29.0,29.64,West,273,0.0,0.0,71,0.00,,,0.00,,2013-04-19 21:11:00,
2013-04-19 16:21:00,38.0,29.0,29.64,West,273,0.0,0.0,71,0.00,,,0.00,,2013-04-19 21:21:00,
2013-04-19 16:32:00,38.0,30.0,29.65,West,278,0.0,0.0,72,0.00,,,0.00,,2013-04-19 21:32:00,
2013-04-19 16:42:00,38.0,30.0,29.65,West,278,0.0,0.0,72,0.00,,,0.00,,2013-04-19 21:42:00,
2013-04-19 16:52:00,38.0,30.0,29.66,West,270,0.0,0.0,72,0.00,,,0.00,,2013-04-19 21:52:00,
2013-04-19 17:02:00,39.0,31.0,29.67,WNW,302,0.0,0.0,72,0.00,,,0.00,,2013-04-19 22:02:00,
2013-04-19 17:12:00,39.0,31.0,29.67,WNW,302,0.0,0.0,72,0.00,,,0.00,,2013-04-19 22:12:00,
2013-04-19 17:22:00,38.0,31.0,29.68,NW,309,0.0,0.0,76,0.00,,,0.00,,2013-04-19 22:22:00,
2013-04-19 17:33:00,38.0,31.0,29.69,West,276,0.0,0.0,75,0.00,,,0.00,,2013-04-19 22:33:00,
2013-04-19 17:42:00,38.0,31.0,29.69,West,276,0.0,0.0,75,0.00,,,0.00,,2013-04-19 22:42:00,
2013-04-19 17:52:00,38.0,31.0,29.70,WSW,247,0.0,0.0,76,0.00,,,0.00,,2013-04-19 22:52:00,
2013-04-19 18:03:00,38.0,30.0,29.70,West,273,0.0,0.0,74,0.00,,,0.00,,2013-04-19 23:03:00,
2013-04-19 18:11:00,38.0,30.0,29.70,West,273,0.0,0.0,74,0.00,,,0.00,,2013-04-19 23:11:00,
2013-04-19 18:22:00,38.0,30.0,29.71,WNW,283,0.0,0.0,74,0.00,,,0.00,,2013-04-19 23:22:00,
2013-04-19 18:32:00,37.0,30.0,29.72,WNW,287,0.0,0.0,76,0.00,,,0.00,,2013-04-19 23:32:00,
2013-04-19 18:42:00,37.0,30.0,29.72,WNW,287,0.0,0.0,76,0.00,,,0.00,,2013-04-19 23:42:00,
2013-04-19 18:52:00,37.0,30.0,29.73,West,281,0.0,0.0,75,0.00,,,0.00,,2013-04-19 23:52:00,
2013-04-19 19:02:00,37.0,26.0,29.75,WNW,283,0.0,0.0,65,0.00,,,0.00,,2013-04-20 00:02:00,
2013-04-19 19:12:00,37.0,26.0,29.75,WNW,283,0.0,0.0,65,0.00,,,0.00,,2013-04-20 00:12:00,
2013-04-19 19:21:00,37.0,26.0,29.75,West,273,0.0,0.0,65,0.00,,,0.00,,2013-04-20 00:21:00,
2013-04-19 19:32:00,37.0,26.0,29.77,West,278,0.0,0.0,65,0.00,,,0.00,,2013-04-20 00:32:00,
2013-04-19 19:41:00,37.0,26.0,29.77,West,278,0.0,0.0,65,0.00,,,0.00,,2013-04-20 00:41:00,
2013-04-19 19:51:00,37.0,25.0,29.78,West,277,0.0,0.0,62,0.00,,,0.00,,2013-04-20 00:51:00,
2013-04-19 20:01:00,37.0,26.0,29.79,WNW,288,0.0,0.0,63,0.00,,,0.00,,2013-04-20 01:01:00,
2013-04-19 20:11:00,37.0,26.0,29.79,WNW,288,0.0,0.0,63,0.00,,,0.00,,2013-04-20 01:11:00,
2013-04-19 20:21:00,37.0,26.0,29.80,WNW,290,0.0,0.0,63,0.00,,,0.00,,2013-04-20 01:21:00,
2013-04-19 20:32:00,37.0,27.0,29.81,West,278,0.0,0.0,66,0.00,,,0.00,,2013-04-20 01:32:00,
2013-04-19 20:42:00,37.0,27.0,29.81,West,278,0.0,0.0,66,0.00,,,0.00,,2013-04-20 01:42:00,
2013-04-19 20:52:00,37.0,28.0,29.81,West,277,0.0,0.0,69,0.00,,,0.00,,2013-04-20 01:52:00,
2013-04-19 21:01:00,37.0,30.0,29.83,WNW,300,0.0,0.0,75,0.00,,,0.00,,2013-04-20 02:01:00,
2013-04-19 21:11:00,36.0,29.0,29.84,WNW,284,0.0,0.0,75,0.00,,,0.00,,2013-04-20 02:11:00,
2013-04-19 21:21:00,36.0,29.0,29.84,WNW,284,0.0,0.0,75,0.00,,,0.00,,2013-04-20 02:21:00,
2013-04-19 21:32:00,36.0,29.0,29.85,West,276,0.0,0.0,75,0.00,,,0.00,,2013-04-20 02:32:00,
2013-04-19 21:42:00,36.0,29.0,29.85,West,276,0.0,0.0,75,0.00,,,0.00,,2013-04-20 02:42:00,
2013-04-19 21:52:00,36.0,28.0,29.86,West,269,0.0,0.0,72,0.00,,,0.00,,2013-04-20 02:52:00,
2013-04-19 22:01:00,36.0,29.0,29.86,West,276,0.0,0.0,74,0.00,,,0.00,,2013-04-20 03:01:00,
2013-04-19 22:11:00,36.0,29.0,29.86,West,276,0.0,0.0,74,0.00,,,0.00,,2013-04-20 03:11:00,
2013-04-19 22:21:00,36.0,29.0,29.87,West,270,0.0,0.0,74,0.00,,,0.00,,2013-04-20 03:21:00,
2013-04-19 22:33:00,36.0,28.0,29.88,West,280,0.0,0.0,73,0.00,,,0.00,,2013-04-20 03:33:00,
2013-04-19 22:43:00,36.0,28.0,29.88,West,280,0.0,0.0,73,0.00,,,0.00,,2013-04-20 03:43:00,
2013-04-19 22:52:00,36.0,28.0,29.89,WSW,258,0.0,0.0,73,0.00,,,0.00,,2013-04-20 03:52:00,
2013-04-19 23:03:00,35.0,29.0,29.90,WNW,288,0.0,0.0,79,0.00,,,0.00,,2013-04-20 04:03:00,
2013-04-19 23:12:00,35.0,29.0,29.90,WNW,288,0.0,0.0,79,0.00,,,0.00,,2013-04-20 04:12:00,
2013-04-19 23:23:00,35.0,29.0,29.90,West,272,0.0,0.0,77,0.00,,,0.00,,2013-04-20 04:23:00,
2013-04-19 23:32:00,34.0,28.0,29.91,West,270,0.0,0.0,77,0.00,,,0.00,,2013-04-20 04:32:00,
2013-04-19 23:42:00,34.0,28.0,29.91,West,270,0.0,0.0,77,0.00,,,0.00,,2013-04-20 04:42:00,
2013-04-19 23:52:00,34.0,28.0,29.92,West,273,0.0,0.0,78,0.00,,,0.00,,2013-04-20 04:52:00,